Home > Weather > Bogota > Past weeks

Flag for Colombia Past Weather in Bogota, Colombia — Yesterday and Last 2 Weeks

Now
59 °F

Passing clouds.


Feels Like: 57 °F
Forecast: 46 / 62 °F
Wind: 10 mph from South

Location: Bogota / Eldorado

Current Time: Jul 28, 2016 at 7:23:07 PM

Latest Report: Jul 28, 2016 at 7:00 PM


Visibility: N/A

Pressure: 30.31 "Hg (22.22 "Hg at 2618m altitude)

Humidity: 59%

Dew Point: 45 °F

Location of BogotaLocation

Past Weather in Bogota — Graph

°F

Bogota Temperature Yesterday

Maximum temperature yesterday: 63 °F (at 11:00 AM)
Minimum temperature yesterday: 45 °F (at 4:00 AM)
Average temperature yesterday: 55 °F

High & Low Weather Summary for the Past Weeks

 TemperatureHumidityPressure
High68 °F (Jul 14, 1:00 PM)100% (Jul 16, 12:00 PM)30.43 "Hg (Jul 16, 12:00 PM)
Low45 °F (Jul 16, 12:00 PM)38% (Jul 14, 4:00 PM)30.24 "Hg (Jul 26, 4:00 PM)
Average56 °F75%30.34 "Hg
* Reported Jul 13 6:00 PM — Jul 28 6:00 PM, Bogota, Weather by CustomWeather, © 2016

Note: Actual official high and low records may vary slightly from our data, if they occured in-between our weather recording intervals... More about our weather records

Advertising

Bogota Weather History for the Previous 24 Hours

Scroll right to see more
 ConditionsComfort  
Time TempWeatherWind HumidityBarometerVisibility
6:00 PM
Thu, Jul 28
61 °FScattered clouds.10 mph52%30.29 "HgN/A
5:00 PM63 °FScattered clouds.12 mph49%30.27 "HgN/A
4:00 PM64 °FScattered clouds.12 mph43%30.26 "HgN/A
3:00 PM63 °FScattered clouds.12 mph49%30.27 "HgN/A
2:00 PM63 °FScattered showers. Scattered clouds.18 mph52%30.29 "HgN/A
1:00 PM63 °FScattered showers. Scattered clouds.18 mph56%30.32 "HgN/A
12:00 PM63 °FScattered showers. Scattered clouds.14 mph56%30.34 "HgN/A
11:00 AM61 °FScattered showers. Partly sunny.12 mph55%30.35 "HgN/A
10:00 AM61 °FScattered showers. Partly sunny.17 mph59%30.35 "HgN/A
9:00 AM57 °FScattered showers. Partly sunny.2 mph72%30.36 "HgN/A
8:00 AM55 °FPartly sunny.5 mph77%30.37 "HgN/A
7:00 AM52 °FScattered showers. Partly sunny.3 mph88%30.34 "HgN/A
6:00 AM52 °FScattered showers. Partly sunny.5 mph82%30.32 "HgN/A
5:00 AM52 °FScattered showers. Partly cloudy.3 mph82%30.32 "HgN/A
4:00 AM52 °FScattered showers. Partly cloudy.2 mph82%30.32 "HgN/A
3:00 AM52 °FScattered showers. Partly cloudy.2 mph88%30.32 "HgN/A
2:00 AM52 °FScattered showers. Partly cloudy.5 mph82%30.32 "HgN/A
1:00 AM50 °FPassing clouds.2 mph88%30.34 "HgN/A
12:00 AM54 °FScattered showers. Passing clouds.3 mph72%30.36 "HgN/A
11:00 PM
Wed, Jul 27
55 °FScattered showers. Passing clouds.10 mph72%30.37 "HgN/A
10:00 PM55 °FScattered showers. Passing clouds.13 mph72%30.37 "HgN/A
9:00 PM54 °FPassing clouds.7 mph77%30.34 "HgN/A
8:00 PM55 °FPassing clouds.7 mph72%30.32 "HgN/A
7:00 PM55 °FPassing clouds.7 mph67%30.28 "HgN/A
Weather by CustomWeather, © 2016

See weather overviewHow to use our weather pages